AWQ645 WATO-WADD

Flight info

Callsign AWQ645
Flight time N/A
Altitude 30000
Route TOGEM W42 PEBGU
Aircraft A320/M-SDE3FGHIRWY/LB1

Departure

Time 2026-05-07 08:40
Airport Komodo Airport (WATO)

Arrival

Time N/A
Airport Denpasar I Gusti Ngurah Rai International Airport (WADD)
Time Latitude Longitude Altitude Speed Heading
2026-05-07 08:27 -8.48864 119.88793 237 ft 0 kts 262°
2026-05-07 08:30 -8.48863 119.88798 237 ft 4 kts 261°
2026-05-07 08:30 -8.48857 119.88824 237 ft 4 kts 243°
2026-05-07 08:31 -8.48842 119.88842 237 ft 4 kts 187°
2026-05-07 08:31 -8.48835 119.88842 237 ft 0 kts 173°
2026-05-07 08:34 -8.48837 119.88842 237 ft 3 kts 173°
2026-05-07 08:34 -8.48886 119.88849 237 ft 9 kts 172°
2026-05-07 08:34 -8.48947 119.88857 237 ft 9 kts 172°
2026-05-07 08:35 -8.49022 119.88867 237 ft 11 kts 172°
2026-05-07 08:35 -8.49090 119.88876 237 ft 10 kts 172°
2026-05-07 08:35 -8.49157 119.88884 237 ft 9 kts 173°
2026-05-07 08:35 -8.49214 119.88891 237 ft 8 kts 174°
2026-05-07 08:36 -8.49242 119.88906 237 ft 3 kts 121°
2026-05-07 08:36 -8.49243 119.88923 237 ft 0 kts 87°
2026-05-07 08:38 -8.49242 119.88937 237 ft 3 kts 86°
2026-05-07 08:38 -8.49238 119.88972 239 ft 6 kts 81°
2026-05-07 08:39 -8.49217 119.89003 235 ft 4 kts 17°
2026-05-07 08:39 -8.49167 119.88997 237 ft 25 kts 353°
2026-05-07 08:39 -8.48728 119.88942 241 ft 98 kts 353°
2026-05-07 08:39 -8.47849 119.88827 242 ft 153 kts 353°
2026-05-07 08:40 -8.46755 119.88680 709 ft 160 kts 354°
2026-05-07 08:40 -8.45650 119.88669 1350 ft 159 kts
2026-05-07 08:40 -8.44541 119.88741 1924 ft 164 kts
2026-05-07 08:40 -8.43338 119.88544 2169 ft 192 kts 333°
2026-05-07 08:41 -8.42373 119.87519 2400 ft 219 kts 298°
2026-05-07 08:41 -8.41682 119.86051 2698 ft 243 kts 296°
2026-05-07 08:41 -8.40943 119.84422 3078 ft 266 kts 295°
2026-05-07 08:41 -8.40159 119.82686 3750 ft 276 kts 295°
2026-05-07 08:42 -8.39354 119.80910 4576 ft 280 kts 295°
2026-05-07 08:42 -8.38537 119.79114 5383 ft 284 kts 295°
2026-05-07 08:42 -8.37704 119.77286 6183 ft 288 kts 294°
2026-05-07 08:42 -8.37215 119.75323 6943 ft 292 kts 270°
2026-05-07 08:43 -8.37631 119.73326 7684 ft 294 kts 243°
2026-05-07 08:43 -8.38618 119.71505 8445 ft 297 kts 239°
2026-05-07 08:43 -8.39641 119.69678 9179 ft 301 kts 239°
2026-05-07 08:43 -8.40676 119.67832 9899 ft 304 kts 239°
2026-05-07 08:44 -8.41726 119.65955 10424 ft 316 kts 240°
2026-05-07 08:44 -8.42840 119.63954 10594 ft 337 kts 240°
2026-05-07 08:44 -8.44005 119.61860 11087 ft 346 kts 240°
2026-05-07 08:44 -8.45189 119.59730 11731 ft 349 kts 240°
2026-05-07 08:45 -8.46385 119.57583 12403 ft 352 kts 240°
2026-05-07 08:45 -8.47592 119.55418 13051 ft 355 kts 241°
2026-05-07 08:45 -8.48807 119.53236 13677 ft 358 kts 241°
2026-05-07 08:45 -8.50032 119.51034 14318 ft 361 kts 241°
2026-05-07 08:46 -8.51262 119.48819 14968 ft 362 kts 241°
2026-05-07 08:46 -8.52496 119.46597 15586 ft 363 kts 241°
2026-05-07 08:46 -8.53739 119.44364 16170 ft 366 kts 241°
2026-05-07 08:46 -8.54988 119.42120 16738 ft 368 kts 242°
2026-05-07 08:47 -8.55993 119.39740 17269 ft 370 kts 254°
2026-05-07 08:47 -8.56490 119.37189 17805 ft 372 kts 265°
2026-05-07 08:47 -8.56488 119.34572 18322 ft 374 kts 273°
2026-05-07 08:47 -8.56359 119.31941 18826 ft 376 kts 272°
2026-05-07 08:48 -8.56231 119.29291 19310 ft 379 kts 272°
2026-05-07 08:48 -8.56105 119.26623 19809 ft 381 kts 272°
2026-05-07 08:48 -8.55980 119.23938 20277 ft 384 kts 272°
2026-05-07 08:48 -8.55857 119.21234 20733 ft 387 kts 272°
2026-05-07 08:49 -8.55732 119.18506 21170 ft 390 kts 272°
2026-05-07 08:49 -8.55606 119.15759 21641 ft 392 kts 272°
2026-05-07 08:49 -8.55480 119.12999 22083 ft 395 kts 272°
2026-05-07 08:49 -8.55351 119.10222 22511 ft 398 kts 272°
2026-05-07 08:50 -8.55220 119.07420 22924 ft 400 kts 272°
2026-05-07 08:50 -8.55087 119.04607 23329 ft 402 kts 272°
2026-05-07 08:50 -8.54951 119.01772 23727 ft 405 kts 272°
2026-05-07 08:50 -8.54815 118.98923 24107 ft 407 kts 272°
2026-05-07 08:51 -8.54680 118.96061 24469 ft 410 kts 272°
2026-05-07 08:51 -8.54546 118.93176 24833 ft 412 kts 272°
2026-05-07 08:51 -8.54412 118.90282 25190 ft 414 kts 272°
2026-05-07 08:51 -8.54277 118.87369 25534 ft 416 kts 272°
2026-05-07 08:52 -8.54139 118.84445 25885 ft 418 kts 272°
2026-05-07 08:52 -8.53998 118.81503 26202 ft 420 kts 272°
2026-05-07 08:52 -8.53859 118.78591 26513 ft 422 kts 271°
2026-05-07 08:52 -8.53720 118.75624 26828 ft 424 kts 271°
2026-05-07 08:53 -8.53578 118.72646 27131 ft 425 kts 271°
2026-05-07 08:53 -8.53437 118.69658 27400 ft 428 kts 271°
2026-05-07 08:53 -8.53302 118.66650 27687 ft 429 kts 271°
2026-05-07 08:53 -8.53164 118.63631 27959 ft 431 kts 271°
2026-05-07 08:54 -8.53021 118.60602 28220 ft 433 kts 271°
2026-05-07 08:54 -8.52876 118.57559 28494 ft 434 kts 271°
2026-05-07 08:54 -8.52733 118.54506 28751 ft 436 kts 271°
2026-05-07 08:54 -8.52594 118.51442 29012 ft 437 kts 271°
2026-05-07 08:55 -8.52458 118.48366 29263 ft 439 kts 271°
2026-05-07 08:55 -8.52324 118.45281 29509 ft 441 kts 271°
2026-05-07 08:55 -8.52189 118.42181 29730 ft 442 kts 271°
2026-05-07 08:55 -8.52051 118.39077 29847 ft 441 kts 271°
2026-05-07 08:56 -8.51907 118.36041 29869 ft 424 kts 271°
2026-05-07 08:56 -8.51764 118.33092 29868 ft 417 kts 271°
2026-05-07 08:56 -8.51491 118.27279 29869 ft 413 kts 271°
2026-05-07 08:57 -8.51227 118.21478 29867 ft 413 kts 271°
2026-05-07 08:57 -8.50963 118.15676 29880 ft 414 kts 271°
2026-05-07 08:58 -8.50695 118.09873 29876 ft 413 kts 271°
2026-05-07 08:58 -8.50468 118.05054 29876 ft 413 kts 271°
2026-05-07 08:59 -8.50196 117.99254 29875 ft 413 kts 271°
2026-05-07 08:59 -8.49925 117.93458 29877 ft 413 kts 271°
2026-05-07 09:00 -8.49657 117.87661 29873 ft 413 kts 271°
2026-05-07 09:00 -8.49390 117.81863 29879 ft 414 kts 271°
2026-05-07 09:01 -8.49109 117.76061 29878 ft 413 kts 271°
2026-05-07 09:01 -8.48827 117.70262 29872 ft 413 kts 271°
2026-05-07 09:02 -8.48551 117.64472 29876 ft 413 kts 271°
2026-05-07 09:02 -8.48282 117.58677 29873 ft 413 kts 271°
2026-05-07 09:03 -8.48004 117.52882 29871 ft 413 kts 271°
2026-05-07 09:03 -8.47725 117.47086 29872 ft 410 kts 271°
2026-05-07 09:04 -8.47588 117.44297 29767 ft 397 kts 271°
2026-05-07 09:04 -8.47464 117.41538 29429 ft 390 kts 268°
2026-05-07 09:04 -8.47842 117.38867 29018 ft 383 kts 254°
2026-05-07 09:04 -8.48535 117.36272 28594 ft 382 kts 253°
2026-05-07 09:05 -8.49243 117.33693 28168 ft 381 kts 253°
2026-05-07 09:05 -8.49952 117.31123 27737 ft 379 kts 253°
2026-05-07 09:05 -8.50654 117.28565 27315 ft 377 kts 253°
2026-05-07 09:05 -8.51351 117.26023 26892 ft 375 kts 254°
2026-05-07 09:06 -8.52042 117.23492 26462 ft 373 kts 254°
2026-05-07 09:06 -8.52724 117.20973 26035 ft 371 kts 254°
2026-05-07 09:06 -8.53397 117.18469 25610 ft 368 kts 255°
2026-05-07 09:06 -8.54063 117.15980 25183 ft 366 kts 255°
2026-05-07 09:07 -8.54724 117.13505 24768 ft 364 kts 255°
2026-05-07 09:07 -8.55385 117.11030 24095 ft 370 kts 255°
2026-05-07 09:07 -8.56074 117.08462 23808 ft 381 kts 255°
2026-05-07 09:07 -8.56751 117.05939 23841 ft 366 kts 255°
2026-05-07 09:08 -8.57422 117.03445 23052 ft 372 kts 255°
2026-05-07 09:08 -8.58104 117.00914 22504 ft 372 kts 255°
2026-05-07 09:08 -8.58772 116.98439 22419 ft 359 kts 255°
2026-05-07 09:08 -8.59422 116.96033 22343 ft 353 kts 255°
2026-05-07 09:09 -8.60066 116.93649 22260 ft 351 kts 255°